TURKSAT 4A

Last updated on Tue Sep 22 2026 00:03:13 GMT+0000 (Coordinated Universal Time)

1 39522U 14007A 26264.49739072 .00000142 00000+0 00000+0 0 9999 2 39522 0.0613 293.2046 0003714 312.0526 336.1877 1.00274056 45934
UTC large
Height (km)
Speed (km/s)
/
Latitude / Longitude
Inclination (degrees)
Orbital Period (minutes)
Azimuth
Elevation
Range (km)
Doppler Factor

Next 0 passes for location: London (51.5072 / 0.1276)

No passes found over London.
TURKSAT 4A